User: anonymous
Location: Unspecified
(0.0000°N, 0.0000°E)
Time: 06:48:32
(UTC+02:00)
Language:

Helios 1A Rocket - Orbit

View from above orbital plane
View from above orbital plane
View from above satellite
View from above satellite

Ground track
Ground track

The orbit data is extracted from the following two-line orbital elements,

1 23608U 95033D   14294.49686545  .00004643  00000-0  45374-3 0  3566
2 23608 098.2780 162.5820 0017528 204.1247 155.9152 14.92796445 42861
Epoch (UTC): 21 October 2014 11:55:29
Eccentricity: 0.0017528
inclination: 98.2780°
perigee height: 577 km
apogee height: 601 km
right ascension of ascending node: 162.5820°
argument of perigee: 204.1247°
revolutions per day: 14.92796445
mean anomaly at epoch: 155.9152°
orbit number at epoch: 4286

The dashed part of the orbit path shows where the satellite is in the earth's shadow,  

DLR